Flag for U.S.A. Weather past 2 weeks in Moreno Valley, California, U.S.A.

Now
72 °F

Clear.


Feels Like: 74 °F
Forecast: 65 / 96 °F
Wind: 6 mph from Northwest

Location: Riverside / March Air Force Base

Current Time: Jul 29, 2015 at 12:47:10 AM

Latest Report: Jul 28, 2015 at 11:58 PM


Visibility: 10 mi

Pressure: 29.90 "Hg

Humidity: 71%

Dew point: 62 °F

Location of Moreno ValleyLocation

Historic Weather in Moreno Valley — Graph

°F

Moreno Valley temperature yesterday

Maximum temperature yesterday: 95 °F (at 3:58 PM)
Minimum temperature yesterday: 61 °F (at 5:58 AM)
Average temperature yesterday: 77 °F

Past Weeks' High & Low Weather Summary

 TemperatureHumidityPressure
High96 °F (Jul 17, 2:58 PM)100% (Jul 15, 4:58 AM)30.13 "Hg (Jul 15, 4:58 AM)
Low56 °F (Jul 15, 5:58 AM)12% (Jul 17, 11:58 AM)29.77 "Hg (Jul 17, 3:58 PM)
Average75 °F66%29.92 "Hg
* Reported Jul 13 11:58 PM — Jul 28 11:58 PM, Moreno Valley, Weather by CustomWeather, © 2015

Note: Actual official high and low records may vary slightly from our data, if they occured in-between our weather recording intervals... More about our weather records

Advertising

Moreno Valley weather history for previous 24 hours

 ConditionsComfort  
Time TempWeatherWind HumidityBarometerVisibility
11:58 PM
Tue, Jul 28
72 °FClear.6 mph71%29.90 "Hg10 mi
10:58 PM73 °FClear.2 mph68%29.91 "Hg10 mi
9:58 PM74 °FClear.1 mph65%29.90 "Hg10 mi
8:58 PM76 °FClear.3 mph60%29.87 "Hg10 mi
7:58 PM79 °FSunny.8 mph52%29.84 "Hg10 mi
6:58 PM85 °FSunny.12 mph43%29.81 "Hg10 mi
5:58 PM91 °FSunny.13 mph36%29.80 "Hg10 mi
4:58 PM93 °FSunny.12 mph30%29.80 "Hg10 mi
3:58 PM95 °FSunny.8 mph23%29.80 "Hg10 mi
2:58 PM93 °FSunny.8 mph26%29.83 "Hg10 mi
1:58 PM92 °FSunny.7 mph26%29.85 "Hg10 mi
12:58 PM89 °FSunny.6 mph27%29.87 "Hg10 mi
11:58 AM85 °FSunny.7 mph34%29.88 "Hg10 mi
10:58 AM82 °FSunny.No wind46%29.89 "Hg10 mi
9:58 AM78 °FSunny.2 mph51%29.89 "Hg10 mi
8:58 AM72 °FSunny.No wind65%29.89 "Hg10 mi
7:58 AM68 °FSunny.No wind76%29.90 "Hg10 mi
6:58 AM65 °FSunny.No wind89%29.88 "Hg10 mi
5:58 AM61 °FClear.2 mph98%29.87 "Hg10 mi
4:58 AM62 °FClear.1 mph93%29.86 "Hg10 mi
3:58 AM63 °FClear.1 mph88%29.86 "Hg10 mi
2:58 AM62 °FClear.No wind88%29.86 "Hg10 mi
1:58 AM64 °FClear.3 mph84%29.87 "Hg10 mi
12:58 AM65 °FClear.2 mph80%29.88 "Hg10 mi
Weather by CustomWeather, © 2015

See weather overviewHow to use our weather pages